(344) Desiderata
ephemeris date magn radius delta ra dec elong phase
Today15 Sep 202511.91.792 AU1.495 AU17h15m-43°55'89.3°34.1°
Opposition24 Nov 202612.63.052 AU2.070 AU03h57m+27°38'172.9°2.3°
(344) Desiderata - 2025-09-15
astro.vanbuitenen.nl


 
-1 year
-1 month
-1 day
Now
+1 day
+1 month
+1 year

The interactive orbit chart above shows the body's path through the solar system and its position at the given date. Green and blue lines are shown perpendicular to the ecliptic plane: Green if the path is above the ecliptic plane, blue if it is below. (Left-click and drag to rotate the view; Right-click and drag to move the view; Use scroll wheel to zoom in our out.)

The orbital elements of Desiderata are:

            e (Eccentricity)                : 0.3138851
            a (Semimajor axis)              : 2.5965348
            i (Inclination)                 : 18.35186
            Ω (Longitude of ascending node) : 47.99622
            ω (Argument of perihelion)      : 237.37845
            M (Mean anomaly)                : 335.11184
            Epoch                           : 2025 May 05

            L (Longitude of perihelion)     : 104.00231
            B (Latitude of perihelion)      : -15.37787
            P (Orbital period in years)     : 4.18            
        

The light curve chart below shows the estimated development of the minor planet's magnitude.


The all-sky chart below shows the path of the minor planet over the same period as the light curve. The current position is marked yellow.





The following chart shows the path of the minor planet in the next few days. The field of view is optimized for (~10x50) binoculars and finderscopes. A more printer-friendly version of the same chart can be found below.




Ephemerides:
Date       Time       RA (2000)    DEC (2000)    delta   radius  elong  phase   PA    magn
2025-09-15 00:00 UT   17 15 03.7   -43 55 14     1.495    1.792   89.3   34.1    95   11.9 
2025-09-15 14:35 UT   17 16 41.0   -43 54 39     1.500    1.793   89.1   34.1    95   11.9 
2025-09-16 00:00 UT   17 17 44.0   -43 54 14     1.504    1.793   88.9   34.1    95   11.9 
2025-09-17 00:00 UT   17 20 25.4   -43 53 03     1.513    1.794   88.5   34.1    95   11.9 
2025-09-18 00:00 UT   17 23 07.8   -43 51 42     1.522    1.795   88.1   34.0    95   11.9 
2025-09-19 00:00 UT   17 25 51.2   -43 50 10     1.531    1.796   87.6   34.0    95   11.9 
2025-09-20 00:00 UT   17 28 35.6   -43 48 26     1.540    1.797   87.2   33.9    94   11.9 
2025-09-21 00:00 UT   17 31 20.9   -43 46 32     1.548    1.798   86.8   33.9    94   11.9 
2025-09-22 00:00 UT   17 34 07.1   -43 44 26     1.557    1.799   86.4   33.8    94   11.9 
2025-09-23 00:00 UT   17 36 54.1   -43 42 10     1.566    1.800   85.9   33.8    94   12.0 
2025-09-24 00:00 UT   17 39 41.9   -43 39 41     1.575    1.801   85.5   33.7    94   12.0 
2025-09-25 00:00 UT   17 42 30.5   -43 37 02     1.585    1.802   85.1   33.7    94   12.0 
2025-09-26 00:00 UT   17 45 19.8   -43 34 10     1.594    1.803   84.7   33.6    94   12.0 
2025-09-27 00:00 UT   17 48 09.8   -43 31 07     1.603    1.804   84.3   33.6    93   12.0 
2025-09-28 00:00 UT   17 51 00.4   -43 27 52     1.612    1.805   83.9   33.5    93   12.0 
2025-09-29 00:00 UT   17 53 51.6   -43 24 26     1.621    1.806   83.5   33.4    93   12.0 
2025-09-30 00:00 UT   17 56 43.4   -43 20 47     1.630    1.807   83.1   33.4    93   12.0 
2025-10-01 00:00 UT   17 59 35.7   -43 16 56     1.639    1.809   82.7   33.3    93   12.1 


    Terminology:
            
    delta:  distance between minor planet and earth in AU
    radius: distance between minor planet and sun in AU
    magn:   magnitude (brightness) estimate    
    ra:     right ascension in hours (24h = 360deg)
    dec:    declination in degrees
    elong:  elongation in degrees (angle sun-earth-minor planet)    
    phase:  phase angle in degrees (angle sun-minor planet-earth)        
    AU:     Astronomical Unit (mean distance between earth and sun: 149597870.7 km
    

Orbital elements provided by the MPC (Minor Planet Center).
Calculations by a modified version of AAPlus, a C# implementation of the AA+ project by PJ Naughter from the algorithms presented in the book "Astronomical Algorithms" by Jean Meeus.
NGC2000 dso catalog and star labels from VizieR as provided by the Strasbourg astronomical Data Center.
Tycho2 catalog from the ESO archive.